Cleveland, OH

8:23 AM EDT on August 27, 2016 (GMT -0400)
Burke Lakefront

Weather History for KBKL - February, 2012

Change the Weather History Date:

Wednesday, February 29, 2012

  Actual Average Record
Temperature  
Mean Temperature 50 °F -  
Max Temperature 64 °F 38 °F 64 °F (2012)
Min Temperature 37 °F 27 °F 18 °F (2008)
Degree Days  
Heating Degree Days 14    
Moisture  
Dew Point 39 °F    
Average Humidity 77    
Maximum Humidity 93    
Minimum Humidity 47    
Precipitation  
Precipitation 0.00 in - - ()
Sea Level Pressure  
Sea Level Pressure 29.73 in    
Wind  
Wind Speed 7 mph (ESE)    
Max Wind Speed 17 mph    
Max Gust Speed 25 mph    
Visibility 7 miles    
Events Rain    
Averages and records for this station are not official NWS values.
T = Trace of Precipitation, MM = Missing Value Source: NWS Daily Summary

Daily Weather History Graph

Daily Weather History Graph

Search for Another Location

Airport or City:

Trip Planner

Search our weather history database for the weather conditions in past years. The results will help you decide how hot, cold, wet, or windy it might be!

Date:

Astronomy

Feb. 29, 2012 Rise Set
Actual Time 7:02 AM EST 6:16 PM EST
Civil Twilight 6:34 AM EST 6:44 PM EST
Nautical Twilight 6:02 AM EST 7:16 PM EST
Astronomical Twilight 5:30 AM EST 7:48 PM EST
Moon 10:46 AM EST (2/29) 1:08 AM EST (2/29)
Length of Visible Light 12h 10m
Length of Day
11h 14m
Waxing Crescent, 47% of the Moon is Illuminated
Feb 29
Waxing Crescent
Feb 29
First Quarter
Mar 8
Full
Mar 14
Last Quarter
Mar 22
New

Hourly Weather History & Observations

Time (EST) Temp. Windchill Dew Point Humidity Pressure Visibility Wind Dir Wind Speed Gust Speed Precip Events Conditions
12:53 AM 42.1 °F 39.2 °F 24.1 °F 49% 30.13 in 10.0 mi East 4.6 mph - N/A   Overcast
1:53 AM 43.0 °F 40.3 °F 24.1 °F 47% 30.08 in 10.0 mi ESE 4.6 mph - 0.00 in   Overcast
2:53 AM 43.0 °F 39.5 °F 25.0 °F 49% 30.03 in 10.0 mi SE 5.8 mph - 0.00 in Rain Light Rain
3:53 AM 39.0 °F - 30.9 °F 73% 30.01 in 7.0 mi Calm Calm - 0.00 in Rain Light Rain
4:53 AM 37.0 °F 30.4 °F 33.1 °F 86% 29.96 in 8.0 mi NE 9.2 mph - N/A Rain Light Rain
5:53 AM 39.0 °F 33.4 °F 33.1 °F 79% 29.92 in 5.0 mi East 8.1 mph - N/A Rain Rain
6:53 AM 37.9 °F 31.5 °F 35.1 °F 89% 29.86 in 3.0 mi East 9.2 mph - N/A Rain Heavy Rain
7:38 AM 39.2 °F 33.6 °F 35.6 °F 87% 29.83 in 6.0 mi East 8.1 mph - N/A Rain Light Rain
7:53 AM 39.9 °F 35.8 °F 35.1 °F 83% 29.84 in 3.0 mi East 5.8 mph - N/A Rain Heavy Rain
8:03 AM 39.2 °F 34.2 °F 35.6 °F 87% 29.82 in 2.0 mi East 6.9 mph - N/A Rain Rain
8:27 AM 39.2 °F 34.2 °F 35.6 °F 87% 29.82 in 1.8 mi NNE 6.9 mph - N/A Rain Light Rain
8:29 AM 39.2 °F 35.0 °F 35.6 °F 87% 29.82 in 2.0 mi NE 5.8 mph - N/A Rain Light Rain
8:48 AM 37.4 °F 31.4 °F 35.6 °F 93% 29.80 in 1.2 mi NE 8.1 mph - N/A Rain Light Rain
8:53 AM 37.9 °F 31.5 °F 36.0 °F 93% 29.81 in 1.2 mi ENE 9.2 mph - N/A Rain Light Rain
9:45 AM 41.0 °F 38.0 °F 39.2 °F 93% 29.77 in 1.2 mi Variable 4.6 mph - N/A Rain Heavy Rain
9:53 AM 42.1 °F 37.1 °F 39.0 °F 89% 29.76 in 1.5 mi East 8.1 mph - N/A Rain Heavy Rain
10:01 AM 42.8 °F 37.5 °F 39.2 °F 87% 29.75 in 3.0 mi ESE 9.2 mph - N/A Rain Light Rain
10:28 AM 44.6 °F 40.2 °F 39.2 °F 81% 29.73 in 9.0 mi SE 8.1 mph - N/A Rain Light Rain
10:53 AM 45.0 °F 39.3 °F 39.9 °F 82% 29.71 in 10.0 mi SSE 11.5 mph 23.0 mph N/A   Overcast
11:23 AM 46.4 °F 45.2 °F 42.8 °F 87% 29.68 in 8.0 mi Variable 3.5 mph 16.1 mph N/A   Overcast
11:53 AM 46.9 °F - 43.0 °F 86% 29.68 in 6.0 mi SSE 12.7 mph 25.3 mph N/A   Overcast
12:19 PM 50.0 °F - 44.6 °F 82% 29.65 in 6.0 mi SSE 17.3 mph 25.3 mph N/A   Haze
12:53 PM 53.1 °F - 48.0 °F 83% 29.65 in 6.0 mi SSE 13.8 mph 24.2 mph N/A   Haze
1:53 PM 59.0 °F - 51.1 °F 75% 29.63 in 7.0 mi South 10.4 mph - N/A   Partly Cloudy
2:53 PM 64.0 °F - 53.1 °F 67% 29.59 in 10.0 mi South 4.6 mph - N/A   Clear
3:53 PM 61.0 °F - 51.1 °F 70% 29.56 in 8.0 mi Calm Calm - N/A   Clear
4:53 PM 51.1 °F - 43.0 °F 74% 29.54 in 10.0 mi Calm Calm - N/A   Clear
5:53 PM 53.1 °F - 45.0 °F 74% 29.52 in 10.0 mi Calm Calm - N/A   Clear
6:53 PM 51.1 °F - 45.0 °F 80% 29.49 in 10.0 mi ENE 3.5 mph - N/A   Clear
7:53 PM 57.9 °F - 52.0 °F 81% 29.48 in 10.0 mi SE 9.2 mph - N/A   Mostly Cloudy
8:53 PM 48.9 °F - 39.9 °F 71% 29.49 in 10.0 mi ESE 3.5 mph - 0.00 in Rain Light Rain
9:53 PM 52.0 °F - 39.0 °F 61% 29.50 in 10.0 mi South 4.6 mph - N/A   Partly Cloudy
10:53 PM 54.0 °F - 41.0 °F 62% 29.48 in 10.0 mi SW 8.1 mph - N/A   Mostly Cloudy
11:53 PM 51.1 °F - 35.1 °F 54% 29.51 in 10.0 mi West 17.3 mph 20.7 mph N/A   Overcast